Regional Weather Roundup
Issued by NWS Newport/Morehead, NC

Current Version | Previous Version | Graphics & Text | Print | Product List | Glossary Off
Versions: 1 2 3 4 5 6 7 8 9 10 11 12 13 14 15 16 17 18 19 20 21 22 23 24 25 26 27 28 29 30 31 32 33 34 35 36 37 38 39 40 41 42 43 44 45 46 47 48 49 50

000
ASUS42 KMHX 180010
RWRMHX
WEATHER ROUNDUP FOR EASTERN NORTH CAROLINA
NATIONAL WEATHER SERVICE NEWPORT/MOREHEAD CITY NC
800 PM EDT THU APR 17 2014

NOTE: "FAIR" INDICATES FEW OR NO CLOUDS BELOW 12,000 FEET
WITH NO SIGNIFICANT WEATHER AND/OR OBSTRUCTIONS TO VISIBILITY

NCZ015>017-031-032-045>047-102-103-180100-
NORTH COAST

CITY           SKY/WX    TMP DP  RH WIND       PRES   REMARKS
EDENTON        CLEAR     47  40  77 NE9G20    30.49F
ELIZABETH CITY CLOUDY    47  40  76 NE16G25   30.50F
KITTY HAWK     CLEAR     46  42  86 NE14G22   30.46S
MANTEO         PTCLDY    46  43  87 NE17G25   30.47S

$$

NCZ045>047-081-094-103-104-180100-
CENTRAL COAST

CITY           SKY/WX    TMP DP  RH WIND       PRES   REMARKS
FRISCO         PTCLDY    50  47  89 NE14G30   30.41F
SWANQUARTER      N/A     50 N/A N/A NE12G18   30.41S

$$

NCZ095-097-098-100-101-180100-
SOUTHERN COAST

CITY           SKY/WX    TMP DP  RH WIND       PRES   REMARKS
BEAUFORT       MOCLDY    54  44  69 N15       30.40F
CEDAR ISLAND     N/A     54 N/A N/A N14G25    30.44F
JACKSONVILLE   CLEAR     57  45  64 NE14      30.41R
NEWPORT          N/A     55  46  71 N9          N/A
PINEY ISLAND   CLEAR     54  45  71 N16G25    30.42F
WILMINGTON     CLEAR     60  49  66 E7        30.40R


$$

NCZ011>013-027>030-043-044-078>080-089-090>093-098-180100-
COASTAL PLAIN

CITY           SKY/WX    TMP DP  RH WIND       PRES   REMARKS
AHOSKIE        CLEAR     48  38  66 NE7       30.49F
CLINTON        CLEAR     60  47  63 CALM      30.42R
ELIZABETHTOWN  CLEAR     60  46  61 CALM      30.40R
GOLDSBORO      CLEAR     59  46  62 NE7       30.41R
GREENVILLE     CLEAR     54  43  66 E13       30.45R
HAVELOCK       MOCLDY    55  41  59 NE17      30.43S
KENANSVILLE    CLEAR     58  44  59 E5        30.43R
KINSTON        CLEAR     57  43  58 NE12      30.43S
NEW BERN       CLEAR     55  43  63 NE13      30.45R
RICHLANDS      PTCLDY    57  43  58 NE13      30.42R
ROANOKE RAPIDS NOT AVBL
ROCKY MOUNT      N/A    N/A N/A N/A MISG      30.45R
WASHINGTON     CLEAR     53  44  73 NE8       30.46S
WHITEVILLE     CLEAR     61  46  57 CALM      30.38R

$$

AMZ130-135-150-152-154-156-158-170-250-252-270-ANZ085-086-088-633-658-670-180100-
MARINE OBSERVATIONS

STATION/POSITION TIME  TEMP    WIND        PRES    WAVE   SWELL
                       AIR SEA DIR/SP/G            HT/PER HT/PER
                 (UTC) (F)     (DEG/KT/KT) (MB)    (FT/S) (FT/S)
CHESAPEAKE LIGHT 2300   45      50/ 25/ 27 1034.1
BUOY 44014       2300   51 53   30/ 21/ 25 1031.7    9/10   5/10
DUCK             0000   47 51   30/ 26/ 29 1031.1
2E DUCK          0000      50                N/A     8/ 8   2/11
OREGON INLET     0000   47 52   10/ 17/ 22 1031.0
BUOY 44095       0000      48                N/A     9/ 7   3/11
HATTERAS CG      0000   52 56   20/ 13/ 21 1030.0
DIAMOND BUOY     NOT AVBL
CAPE LOOKOUT     2300   56      20/ 16/ 20 1029.6
BEAUFORT LAB     0000   55 59   10/ 12/ 18 1029.1
30 SE NEW RIVER  2300   58 63   30/ 23/ 27 1028.4
5 SE WRIGHTSVILL 2300   60 60   70/ 21/ 25 1028.0
FRYING PAN BUOY  0000   61 63   60/ 21/ 25 1027.6    9/ 8   3/ 9
BUOY 41001       NOT AVBL
BUOY 41002       NOT AVBL
BUOY 41004       NOT AVBL

$$



USA.gov is the U.S. government's official web portal to all federal, state and local government web resources and services.